Date String (YYYY-MM-DD hh:mm:ss) UTC,Instrument flags,Ambient pressure (hPa),Sample flow (lpm),Bypass flow (lpm),Sample temperature (°C),Ambient temperature (°C),ASC tube jacket temperature (°C),LED temperature (°C),Box temperature (°C),Sample RH (%),Span deviation,Mass concentration (μg/m³),Mass concentration (μg/m³),Mass concentration (μg/m³)
DateTimeUTC,F1_M11,P_M11,Q1_M11,Q2_M11,T1_M11,T2_M11,T3_M11,T4_M11,T5_M11,U1_M11,ZSPAN_M11,X2_M11,X0_M11,X1_M11
2023-04-07 21:00:00,,0830.3,5.00,0.00,25.2,23.9,00.0,33.4,26.8,07.8,0002.3,0007.25,0014.24,0006.30
2023-04-07 21:01:00,,0830.3,5.01,0.00,25.2,23.9,00.0,33.4,26.8,07.5,0000.0,0007.18,0014.33,0006.24
2023-04-07 21:02:00,,0830.3,5.00,0.00,25.2,23.9,00.0,33.4,26.8,07.5,0000.0,0007.10,0013.85,0006.14
2023-04-07 21:03:00,,0830.2,4.99,0.00,25.2,23.9,00.0,33.5,26.8,07.6,0000.0,0007.07,0013.10,0006.05
2023-04-07 21:04:00,,0830.2,4.99,0.00,25.2,23.9,00.0,33.5,26.8,07.8,0001.9,0006.97,0013.34,0005.98
2023-04-07 21:05:00,,0830.3,5.00,0.00,25.2,23.9,00.0,33.5,26.8,07.8,0000.0,0006.88,0013.69,0005.92
2023-04-07 21:06:00,,0830.2,5.00,0.00,25.2,23.9,00.0,33.5,26.8,07.5,0001.1,0006.78,0014.02,0005.85
2023-04-07 21:07:00,,0830.2,5.00,0.00,25.2,23.9,00.0,33.5,26.8,07.6,0000.0,0006.73,0013.65,0005.80
2023-04-07 21:08:00,,0830.2,5.00,0.00,25.3,24.0,00.0,33.5,26.9,07.6,0000.0,0006.73,0014.50,0005.80
2023-04-07 21:09:00,,0830.2,5.00,0.00,25.3,24.0,00.0,33.5,26.8,07.6,0000.0,0006.79,0014.67,0005.84
2023-04-07 21:10:00,,0830.2,5.00,0.00,25.3,24.0,00.0,33.5,26.8,07.9,0000.0,0006.79,0014.63,0005.87
2023-04-07 21:11:00,,0830.3,5.01,0.00,25.3,24.0,00.0,33.5,26.9,08.3,0000.0,0006.85,0014.59,0005.93
2023-04-07 21:12:00,,0830.2,5.00,0.00,25.3,24.1,00.0,33.6,26.9,08.2,0000.0,0006.95,0014.09,0006.03
2023-04-07 21:13:00,,0830.2,5.00,0.00,25.3,24.1,00.0,33.6,26.9,07.7,0000.0,0006.99,0013.94,0006.09
2023-04-07 21:14:00,,0830.2,4.99,0.00,25.3,24.1,00.0,33.6,26.9,07.6,0000.0,0007.01,0014.06,0006.15
2023-04-07 21:15:00,,0830.3,5.00,0.00,25.3,24.1,00.0,33.6,26.9,07.7,0000.0,0007.01,0014.46,0006.17
2023-04-07 21:16:00,,0830.2,5.00,0.00,25.4,24.1,00.0,33.6,26.9,07.5,0000.0,0006.95,0013.86,0006.12
2023-04-07 21:17:00,,0830.2,5.00,0.00,25.4,24.1,00.0,33.6,26.9,07.6,0000.0,0006.90,0013.09,0006.07
2023-04-07 21:18:00,,0830.2,5.00,0.00,25.4,24.1,00.0,33.6,27.0,07.6,0000.0,0006.88,0013.68,0005.99
2023-04-07 21:19:00,,0830.2,4.99,0.00,25.4,24.1,00.0,33.6,27.0,07.6,0000.0,0006.75,0013.25,0005.89
2023-04-07 21:20:00,,0830.1,5.00,0.00,25.4,24.1,00.0,33.6,27.0,07.7,0000.0,0006.62,0013.34,0005.78
2023-04-07 21:21:00,,0830.1,5.00,0.00,25.4,24.1,00.0,33.6,27.0,07.6,0000.0,0006.51,0013.71,0005.67
2023-04-07 21:22:00,,0830.1,5.00,0.00,25.4,24.1,00.0,33.7,27.0,07.6,0000.0,0006.40,0013.95,0005.56
2023-04-07 21:23:00,,0830.1,4.99,0.00,25.4,24.1,00.0,33.7,27.0,07.7,0000.0,0006.27,0014.06,0005.45
2023-04-07 21:24:00,,0830.1,5.00,0.00,25.4,24.2,00.0,33.7,27.0,07.5,0000.0,0006.22,0014.45,0005.40
2023-04-07 21:25:00,,0830.1,5.00,0.00,25.5,24.2,00.0,33.7,27.0,07.4,0000.0,0006.14,0014.43,0005.34
2023-04-07 21:26:00,,0830.1,5.01,0.00,25.5,24.2,00.0,33.7,27.0,07.5,0000.0,0006.11,0014.36,0005.30
2023-04-07 21:27:00,,0830.1,5.00,0.00,25.5,24.2,00.0,33.7,27.1,07.5,0000.0,0006.13,0014.53,0005.29
2023-04-07 21:28:00,,0830.1,5.00,0.00,25.5,24.2,00.0,33.7,27.1,07.3,0000.0,0006.10,0014.48,0005.27
2023-04-07 21:29:00,,0830.1,5.00,0.00,25.5,24.2,00.0,33.7,27.1,07.3,0000.0,0006.02,0013.93,0005.26
2023-04-07 21:30:00,,0830.0,5.00,0.00,25.5,24.2,00.0,33.7,27.1,07.3,0000.0,0005.99,0013.11,0005.24
2023-04-07 21:31:00,,0830.0,4.99,0.00,25.5,24.3,00.0,33.8,27.1,07.9,0000.0,0005.97,0012.63,0005.24
2023-04-07 21:32:00,,0830.0,4.99,0.00,25.5,24.3,00.0,33.8,27.1,07.8,0000.0,0005.98,0012.47,0005.26
2023-04-07 21:33:00,,0830.0,5.00,0.00,25.5,24.3,00.0,33.8,27.1,07.9,0000.0,0006.01,0012.52,0005.30
2023-04-07 21:34:00,,0830.0,5.01,0.00,25.6,24.3,00.0,33.8,27.2,07.7,0000.0,0006.06,0012.28,0005.34
2023-04-07 21:35:00,,0830.0,5.00,0.00,25.6,24.3,00.0,33.8,27.2,07.7,0000.0,0006.11,0011.94,0005.36
2023-04-07 21:36:00,,0830.0,4.99,0.00,25.6,24.3,00.0,33.8,27.2,07.6,0000.0,0006.17,0011.95,0005.40
2023-04-07 21:37:00,,0830.0,4.99,0.00,25.6,24.3,00.0,33.8,27.1,07.5,0000.0,0006.22,0011.34,0005.45
2023-04-07 21:38:00,,0829.9,5.01,0.00,25.6,24.4,00.0,33.8,27.2,07.7,0000.0,0006.25,0012.28,0005.48
2023-04-07 21:39:00,,0829.8,5.01,0.00,25.6,24.4,00.0,33.9,27.2,07.6,0000.0,0006.26,0013.12,0005.50
2023-04-07 21:40:00,,0829.8,5.00,0.00,25.7,24.4,00.0,33.9,27.2,07.5,0000.0,0006.32,0013.89,0005.52
2023-04-07 21:41:00,,0829.8,5.00,0.00,25.7,24.4,00.0,33.9,27.2,07.9,0000.0,0006.33,0014.67,0005.54
2023-04-07 21:42:00,,0829.8,5.01,0.00,25.7,24.4,00.0,33.9,27.2,07.6,0000.0,0006.33,0015.66,0005.54
2023-04-07 21:43:00,,0829.8,4.99,0.00,25.7,24.5,00.0,33.9,27.2,07.6,0000.0,0006.31,0015.68,0005.51
2023-04-07 21:44:00,,0829.8,4.99,0.00,25.7,24.5,00.0,33.9,27.3,07.7,0000.0,0006.30,0016.28,0005.47
2023-04-07 21:45:00,,0829.9,5.01,0.00,25.7,24.5,00.0,33.9,27.3,07.7,0000.0,0006.28,0017.19,0005.43
2023-04-07 21:46:00,,0829.9,5.00,0.00,25.7,24.5,00.0,34.0,27.3,07.7,0000.0,0006.24,0018.15,0005.38
2023-04-07 21:47:00,,0829.9,4.99,0.00,25.7,24.5,00.0,34.0,27.3,08.1,0000.0,0006.13,0018.13,0005.32
2023-04-07 21:48:00,,0829.8,5.00,0.00,25.8,24.5,00.0,34.0,27.3,08.2,0000.0,0006.06,0018.13,0005.24
2023-04-07 21:49:00,,0829.9,5.00,0.00,25.8,24.6,00.0,34.0,27.4,07.9,0000.0,0006.02,0017.95,0005.18
2023-04-07 21:50:00,,0829.9,5.01,0.00,25.8,24.6,00.0,34.0,27.3,07.8,0000.0,0005.97,0017.10,0005.13
2023-04-07 21:51:00,,0829.8,5.01,0.00,25.8,24.6,00.0,34.0,27.3,07.5,0000.0,0005.88,0016.82,0005.08
2023-04-07 21:52:00,,0829.8,4.99,0.00,25.8,24.6,00.0,34.0,27.4,07.5,0000.0,0005.83,0016.14,0005.02
2023-04-07 21:53:00,,0829.8,5.00,0.00,25.8,24.6,00.0,34.1,27.4,07.6,0000.0,0005.82,0016.96,0004.98
2023-04-07 21:54:00,,0829.8,5.00,0.00,25.8,24.6,00.0,34.1,27.3,08.0,0000.0,0005.77,0017.26,0004.93
2023-04-07 21:55:00,,0829.8,5.00,0.00,25.8,24.6,00.0,34.1,27.3,07.5,0000.0,0005.71,0016.40,0004.89
2023-04-07 21:56:00,,0829.7,5.00,0.00,25.8,24.6,00.0,34.1,27.4,07.4,0000.0,0005.68,0015.41,0004.88
2023-04-07 21:57:00,,0829.8,5.00,0.00,25.8,24.6,00.0,34.1,27.4,07.4,0000.0,0005.69,0015.24,0004.87
2023-04-07 21:58:00,,0829.8,5.00,0.00,25.8,24.6,00.0,34.1,27.4,07.2,0000.0,0005.73,0016.58,0004.88
2023-04-07 21:59:00,,0829.7,5.00,0.00,25.8,24.6,00.0,34.1,27.4,07.2,0000.0,0005.76,0016.45,0004.92
